Погода в Петрово

Россия / Калужская область     55°14′39″N   36°26′14″E
темп.,
°C
ветер,
м/с
пор.,
м/с
влажн.,
%
обл.,
%
осадки,
мм/ч
давл.,
гПа
погр.,
м
5 августа, чт
чт500:00+14ююв118590 0.3 101711
03:00+13ююв129162 0.6 101718
06:00+13юв1192100 0.1 101714
09:00+18юв3572100 0.1 1017343
12:00+22ю4652100 0.2 10161743
15:00+15в2596100 3.3 1016226
18:00+15вюв2692100 0.3 1014227
21:00+14в3797100 1.6 1013156
6 августа, пт
пт600:00+13юв259799 0.5 1012102
03:00+14юв229523 1.4 101235
06:00+15ю229759 1.5 101162
09:00+19ю3486100 1.5 1011416
12:00+22ююз4672100 0.2 1011965
15:00+19юв1295100 2.4 1011131
18:00+18всв269791 0.3 1010224
21:00+18в5129383 0.3 1009382
7 августа, сб
сб700:00+16в41196100 0.0 1008296
03:00+15в399886 0.8 1007236
06:00+16вюв2597100 0.1 1007117
09:00+21ююв3887100 0.3 1007392
12:00+26ю476185 0.0 10081083
15:00+28ю51047100 0.0 10071973
18:00+25ююв41064100 0.1 1007469
21:00+19юз2296100 1.1 100930
8 августа, вс
вс800:00+19з2696100 1.2 1010170
03:00+15з3595100 1.2 1012111
06:00+14зюз2595100 0.0 1013129
09:00+17зюз3579100 0.0 1014452
12:00+22зюз3459100 0.0 10141217
15:00+24юз244735 0.0 10141891
18:00+21сз256593 0.0 1016454
21:00+17ссз11820 0.0 101711
9 августа, пн
пн900:00+15зюз11860 0.0 101811
03:00+14зюз12895 0.0 101911
06:00+14зюз11855 0.0 101911
09:00+21ююз115927 0.0 1019352
12:00+26юз114319 0.0 10191343
15:00+27ююз11385 0.0 10181570
18:00+25ююз125017 0.0 1017309
21:00+19юв016197 0.0 101811